SIA431 WSSS-VRMM

Flight info

Callsign SIA431
Flight time N/A
Altitude 40000
Route MIBEL1A MIBEL L762 MOZES M300 OKABU P756 TENIV TENIV1A
Aircraft A359/H-SDE2E3GHIJ3J4J5LM1ORWXY/LB1D1

Departure

Time N/A
Airport Singapore Changi Airport (WSSS)

Arrival

Time 2026-05-08 17:35
Airport Velana International Airport (VRMM)
Time Latitude Longitude Altitude Speed Heading
2026-05-08 16:42 3.85779 77.88406 39893 ft 509 kts 275°
2026-05-08 16:43 3.86397 77.81330 39893 ft 510 kts 275°
2026-05-08 16:43 3.87009 77.74259 39892 ft 510 kts 275°
2026-05-08 16:44 3.87610 77.67186 39892 ft 510 kts 275°
2026-05-08 16:44 3.88202 77.60155 39892 ft 510 kts 275°
2026-05-08 16:45 3.88796 77.53079 39894 ft 510 kts 275°
2026-05-08 16:45 3.89391 77.46004 39892 ft 510 kts 275°
2026-05-08 16:46 3.89986 77.38926 39894 ft 510 kts 275°
2026-05-08 16:46 3.90580 77.31845 39893 ft 510 kts 275°
2026-05-08 16:47 3.91137 77.24761 39896 ft 510 kts 275°
2026-05-08 16:47 3.91684 77.17673 39897 ft 510 kts 275°
2026-05-08 16:48 3.92235 77.10588 39895 ft 510 kts 275°
2026-05-08 16:48 3.92786 77.03500 39894 ft 510 kts 275°
2026-05-08 16:49 3.93337 76.96415 39896 ft 510 kts 275°
2026-05-08 16:49 3.93888 76.89333 39898 ft 510 kts 275°
2026-05-08 16:50 3.94439 76.82239 39895 ft 511 kts 275°
2026-05-08 16:50 3.94989 76.75146 39895 ft 511 kts 275°
2026-05-08 16:51 3.95538 76.68051 39895 ft 511 kts 275°
2026-05-08 16:51 3.96087 76.60957 39894 ft 511 kts 275°
2026-05-08 16:52 3.96635 76.53866 39895 ft 511 kts 275°
2026-05-08 16:52 3.97184 76.46761 39896 ft 512 kts 275°
2026-05-08 16:53 3.98009 76.36064 39898 ft 515 kts 275°
2026-05-08 16:53 3.98557 76.28914 39900 ft 515 kts 275°
2026-05-08 16:54 3.98604 76.21742 39897 ft 515 kts 269°
2026-05-08 16:54 3.98489 76.14566 39897 ft 515 kts 269°
2026-05-08 16:55 3.98381 76.07441 39895 ft 516 kts 269°
2026-05-08 16:55 3.98275 76.00250 39895 ft 516 kts 269°
2026-05-08 16:56 3.98170 75.93065 39894 ft 516 kts 269°
2026-05-08 16:56 3.98064 75.85874 39639 ft 517 kts 269°
2026-05-08 16:57 3.98011 75.82281 39419 ft 516 kts 269°
2026-05-08 16:57 3.97958 75.78683 39181 ft 516 kts 269°
2026-05-08 16:57 3.97905 75.75091 38958 ft 516 kts 269°
2026-05-08 16:57 3.97851 75.71505 38731 ft 515 kts 269°
2026-05-08 16:58 3.97798 75.67915 38497 ft 515 kts 269°
2026-05-08 16:58 3.97744 75.64330 38231 ft 515 kts 269°
2026-05-08 16:58 3.97690 75.60738 37961 ft 515 kts 269°
2026-05-08 16:58 3.97636 75.57159 37709 ft 516 kts 269°
2026-05-08 16:59 3.97582 75.53562 37459 ft 516 kts 269°
2026-05-08 16:59 3.97528 75.49966 37198 ft 516 kts 269°
2026-05-08 16:59 3.97473 75.46381 36944 ft 516 kts 269°
2026-05-08 16:59 3.97418 75.42774 36695 ft 517 kts 269°
2026-05-08 17:00 3.97363 75.39180 36449 ft 517 kts 269°
2026-05-08 17:00 3.97308 75.35578 36207 ft 518 kts 269°
2026-05-08 17:00 3.97253 75.31977 35967 ft 518 kts 269°
2026-05-08 17:00 3.97197 75.28365 35727 ft 518 kts 269°
2026-05-08 17:01 3.97142 75.24769 35281 ft 515 kts 269°
2026-05-08 17:01 3.97086 75.21174 34495 ft 517 kts 269°
2026-05-08 17:01 3.97030 75.17569 33639 ft 519 kts 269°
2026-05-08 17:01 3.96974 75.13941 32700 ft 522 kts 269°
2026-05-08 17:02 3.96917 75.10308 31778 ft 524 kts 269°
2026-05-08 17:02 3.96860 75.06649 30853 ft 526 kts 269°
2026-05-08 17:02 3.96802 75.02980 29998 ft 528 kts 269°
2026-05-08 17:02 3.96745 74.99330 29283 ft 523 kts 269°
2026-05-08 17:03 3.96687 74.95695 28613 ft 518 kts 269°
2026-05-08 17:03 3.96649 74.93311 28164 ft 514 kts 269°
2026-05-08 17:03 3.96592 74.89755 27502 ft 509 kts 269°
2026-05-08 17:03 3.96536 74.86220 26848 ft 505 kts 269°
2026-05-08 17:04 3.96480 74.82727 26201 ft 500 kts 269°
2026-05-08 17:04 3.96424 74.79253 25566 ft 496 kts 270°
2026-05-08 17:04 3.96351 74.74719 24713 ft 490 kts 270°
2026-05-08 17:04 3.96314 74.72414 24280 ft 487 kts 270°
2026-05-08 17:05 3.96242 74.67957 23433 ft 481 kts 270°
2026-05-08 17:05 3.96188 74.64624 22711 ft 476 kts 270°
2026-05-08 17:05 3.96152 74.62394 22269 ft 471 kts 270°
2026-05-08 17:05 3.96099 74.59141 21637 ft 464 kts 270°
2026-05-08 17:06 3.96048 74.55933 20998 ft 458 kts 270°
2026-05-08 17:06 3.95996 74.52769 20371 ft 452 kts 270°
2026-05-08 17:06 3.95945 74.49645 19734 ft 446 kts 270°
2026-05-08 17:06 3.95895 74.46556 19104 ft 441 kts 270°
2026-05-08 17:07 3.95845 74.43508 18469 ft 436 kts 270°
2026-05-08 17:07 3.95795 74.40491 17779 ft 431 kts 270°
2026-05-08 17:07 3.95746 74.37550 17136 ft 425 kts 270°
2026-05-08 17:07 3.95698 74.34614 16504 ft 419 kts 270°
2026-05-08 17:08 3.95650 74.31722 15887 ft 412 kts 270°
2026-05-08 17:08 3.95602 74.28870 15269 ft 407 kts 270°
2026-05-08 17:08 3.95556 74.26055 14657 ft 402 kts 270°
2026-05-08 17:08 3.95509 74.23277 14058 ft 397 kts 270°
2026-05-08 17:09 3.95463 74.20532 13414 ft 392 kts 270°
2026-05-08 17:09 3.95418 74.17823 12786 ft 386 kts 270°
2026-05-08 17:09 3.95373 74.15155 12186 ft 380 kts 270°
2026-05-08 17:09 3.95328 74.12522 11602 ft 376 kts 270°
2026-05-08 17:10 3.95284 74.09917 11179 ft 368 kts 270°
2026-05-08 17:10 3.95241 74.07419 11043 ft 350 kts 270°
2026-05-08 17:10 3.95200 74.05040 10919 ft 333 kts 270°
2026-05-08 17:10 3.95161 74.02773 10796 ft 318 kts 270°
2026-05-08 17:11 3.95125 74.00610 10676 ft 304 kts 270°
2026-05-08 17:11 3.95090 73.98545 10549 ft 290 kts 270°
2026-05-08 17:11 3.95056 73.96558 10431 ft 280 kts 270°
2026-05-08 17:11 3.95023 73.94634 10225 ft 274 kts 271°
2026-05-08 17:12 3.94992 73.92737 9942 ft 272 kts 271°
2026-05-08 17:12 3.94961 73.90814 9685 ft 283 kts 271°
2026-05-08 17:12 3.94929 73.88820 9458 ft 289 kts 271°
2026-05-08 17:12 3.94900 73.86810 9181 ft 288 kts 271°
2026-05-08 17:13 3.94900 73.84810 8854 ft 286 kts 271°
2026-05-08 17:13 3.94906 73.82825 8531 ft 285 kts 272°
2026-05-08 17:13 3.94910 73.80845 8192 ft 283 kts 272°
2026-05-08 17:13 3.94913 73.78882 7868 ft 281 kts 272°
2026-05-08 17:14 3.94914 73.76935 7541 ft 279 kts 272°
2026-05-08 17:14 3.94917 73.75002 7215 ft 276 kts 272°
2026-05-08 17:14 3.94918 73.73083 6894 ft 275 kts 271°
2026-05-08 17:14 3.94918 73.71164 6573 ft 275 kts 271°
2026-05-08 17:15 3.94917 73.69260 6249 ft 273 kts 271°
2026-05-08 17:15 3.94917 73.67363 5913 ft 272 kts 271°
2026-05-08 17:15 3.94917 73.65477 5603 ft 269 kts 271°
2026-05-08 17:15 3.94914 73.63605 5410 ft 268 kts 271°
2026-05-08 17:16 3.94910 73.61745 5095 ft 267 kts 271°
2026-05-08 17:16 3.94908 73.59893 4834 ft 265 kts 271°
2026-05-08 17:16 3.94906 73.58052 4589 ft 264 kts 271°
2026-05-08 17:16 3.95084 73.56257 4398 ft 254 kts 285°
2026-05-08 17:17 3.95794 73.54690 4239 ft 243 kts 306°
2026-05-08 17:17 3.96994 73.53569 4071 ft 234 kts 328°
2026-05-08 17:17 3.98492 73.52989 3825 ft 232 kts 348°
2026-05-08 17:17 4.00098 73.52878 3516 ft 232 kts 357°
2026-05-08 17:18 4.01713 73.52910 3177 ft 233 kts 359°
2026-05-08 17:18 4.03314 73.53008 2831 ft 226 kts
2026-05-08 17:18 4.04861 73.53126 2558 ft 221 kts 359°
2026-05-08 17:18 4.06382 73.53106 2279 ft 217 kts 355°
2026-05-08 17:19 4.07854 73.53094 2009 ft 205 kts 358°
2026-05-08 17:19 4.09229 73.53110 1765 ft 190 kts 356°
2026-05-08 17:19 4.10493 73.53109 1528 ft 175 kts 356°
2026-05-08 17:19 4.11667 73.53108 1295 ft 162 kts 355°
2026-05-08 17:20 4.12747 73.53108 1095 ft 148 kts 356°
2026-05-08 17:20 4.13733 73.53106 915 ft 136 kts 356°
2026-05-08 17:20 4.14653 73.53094 728 ft 134 kts 353°
2026-05-08 17:20 4.15600 73.53080 612 ft 139 kts 355°
2026-05-08 17:21 4.16549 73.53070 420 ft 135 kts 355°
2026-05-08 17:21 4.17503 73.53117 307 ft 139 kts 358°
2026-05-08 17:21 4.18458 73.53090 104 ft 136 kts 351°
2026-05-08 17:21 4.19370 73.53087 261 ft 136 kts 356°
2026-05-08 17:22 4.20438 73.53107 808 ft 170 kts 358°
2026-05-08 17:22 4.21687 73.53132 1615 ft 192 kts 359°
2026-05-08 17:22 4.23104 73.53154 1879 ft 216 kts 358°
2026-05-08 17:22 4.24691 73.53177 2127 ft 239 kts 358°
2026-05-08 17:23 4.26394 73.53201 2621 ft 251 kts 358°
2026-05-08 17:23 4.28177 73.53230 3181 ft 259 kts 358°
2026-05-08 17:23 4.29991 73.53257 3699 ft 263 kts 358°
2026-05-08 17:23 4.31827 73.53285 3950 ft 265 kts 359°
2026-05-08 17:24 4.33674 73.53313 3974 ft 266 kts 359°
2026-05-08 17:24 4.35491 73.53629 3978 ft 271 kts 22°
2026-05-08 17:24 4.37042 73.54698 3978 ft 275 kts 47°
2026-05-08 17:24 4.37819 73.56439 3977 ft 279 kts 81°
2026-05-08 17:25 4.37530 73.58342 3977 ft 281 kts 115°
2026-05-08 17:25 4.36262 73.59793 3974 ft 280 kts 149°
2026-05-08 17:25 4.34500 73.60600 3972 ft 279 kts 161°
2026-05-08 17:25 4.32614 73.61005 3971 ft 277 kts 180°
2026-05-08 17:26 4.30706 73.60857 3975 ft 275 kts 191°
2026-05-08 17:26 4.28822 73.60531 3975 ft 275 kts 193°
2026-05-08 17:26 4.26948 73.60157 3972 ft 274 kts 194°
2026-05-08 17:26 4.25078 73.59770 3762 ft 274 kts 194°
2026-05-08 17:27 4.23179 73.59639 3424 ft 274 kts 179°
2026-05-08 17:27 4.21279 73.59788 3160 ft 273 kts 176°
2026-05-08 17:27 4.19412 73.59976 2875 ft 267 kts 176°
2026-05-08 17:27 4.17582 73.60169 2591 ft 262 kts 176°
2026-05-08 17:28 4.15789 73.60356 2303 ft 257 kts 176°
2026-05-08 17:28 4.14032 73.60542 2067 ft 250 kts 176°
2026-05-08 17:28 4.12342 73.60718 2004 ft 239 kts 176°
2026-05-08 17:28 4.10711 73.60826 1988 ft 237 kts 180°
2026-05-08 17:29 4.09067 73.60845 1986 ft 232 kts 182°
2026-05-08 17:29 4.07518 73.60842 1988 ft 213 kts 183°
2026-05-08 17:29 4.06081 73.60825 1996 ft 203 kts 187°
2026-05-08 17:29 4.04787 73.60357 2011 ft 196 kts 216°
2026-05-08 17:30 4.03882 73.59390 2007 ft 190 kts 241°
2026-05-08 17:30 4.03289 73.58210 1985 ft 189 kts 254°
2026-05-08 17:30 4.03193 73.56971 1980 ft 172 kts 284°
2026-05-08 17:30 4.03711 73.55950 2000 ft 162 kts 302°
2026-05-08 17:31 4.04348 73.55023 1991 ft 162 kts 305°
2026-05-08 17:31 4.05033 73.54118 1986 ft 163 kts 310°
2026-05-08 17:31 4.05930 73.53417 1988 ft 165 kts 330°
2026-05-08 17:31 4.07049 73.53053 2012 ft 183 kts 349°
2026-05-08 17:32 4.08384 73.52986 1915 ft 190 kts 357°
2026-05-08 17:32 4.09640 73.53016 1710 ft 173 kts 359°
2026-05-08 17:32 4.10790 73.53071 1486 ft 159 kts 360°
2026-05-08 17:32 4.11849 73.53110 1271 ft 146 kts 356°
2026-05-08 17:33 4.12821 73.53101 1097 ft 136 kts 356°
2026-05-08 17:33 4.13752 73.53105 936 ft 134 kts 356°
2026-05-08 17:33 4.14680 73.53103 776 ft 136 kts 353°
2026-05-08 17:33 4.15637 73.53098 608 ft 135 kts 356°
2026-05-08 17:34 4.16571 73.53101 438 ft 136 kts 355°
2026-05-08 17:34 4.17528 73.53098 263 ft 139 kts 354°
2026-05-08 17:34 4.18488 73.53096 84 ft 137 kts 358°
2026-05-08 17:34 4.19393 73.53099 24 ft 121 kts 359°
2026-05-08 17:35 4.20046 73.53101 19 ft 65 kts 359°
2026-05-08 17:35 4.20446 73.53101 19 ft 50 kts
2026-05-08 17:35 4.20770 73.53100 20 ft 39 kts
2026-05-08 17:35 4.20919 73.53065 21 ft 16 kts 296°
2026-05-08 17:36 4.20926 73.52962 21 ft 14 kts 264°
2026-05-08 17:36 4.20856 73.52900 23 ft 15 kts 197°
2026-05-08 17:36 4.20744 73.52888 20 ft 18 kts 181°
2026-05-08 17:36 4.20612 73.52891 21 ft 20 kts 178°
2026-05-08 17:37 4.20462 73.52894 19 ft 23 kts 179°
2026-05-08 17:37 4.20295 73.52898 22 ft 25 kts 179°
2026-05-08 17:37 4.20113 73.52900 19 ft 27 kts 179°
2026-05-08 17:37 4.19916 73.52904 19 ft 29 kts 179°
2026-05-08 17:38 4.19706 73.52907 21 ft 31 kts 179°
2026-05-08 17:38 4.19483 73.52910 20 ft 33 kts 179°
2026-05-08 17:38 4.19248 73.52917 20 ft 34 kts 179°
2026-05-08 17:38 4.19006 73.52918 19 ft 35 kts 179°
2026-05-08 17:39 4.18769 73.52921 19 ft 32 kts 180°
2026-05-08 17:39 4.18538 73.52924 22 ft 33 kts 179°
2026-05-08 17:39 4.18363 73.52928 19 ft 22 kts 179°
2026-05-08 17:39 4.18207 73.52931 20 ft 19 kts 178°
2026-05-08 17:40 4.18130 73.52903 23 ft 11 kts 246°
2026-05-08 17:40 4.18165 73.52858 22 ft 9 kts 357°
2026-05-08 17:40 4.18185 73.52860 21 ft 0 kts
2026-05-08 17:40 4.18199 73.52852 21 ft 4 kts 320°
2026-05-08 17:41 4.18213 73.52795 22 ft 11 kts 269°
2026-05-08 17:41 4.18213 73.52771 22 ft 3 kts 269°
2026-05-08 17:41 4.18213 73.52769 22 ft 0 kts 269°